Location: Unspecified
(0.0000°N, 0.0000°E)
Time: 20:05:25
(UTC+00:00)

deb Kosmos-1275 - Visible Passes

Search period start: 06 March 2026 00:00
Search period end: 16 March 2026 00:00
Orbit: 927 x 976 km, 82.8° (Epoch: 6 March)

Date Brightness Start Highest point End Pass type
(mag) Time Alt. Az. Time Alt. Az. Time Alt. Az.
6 Mar ? 18:41:39 10° SSE 18:47:00 34° E 18:52:20 10° NNE visible
6 Mar ? 20:27:52 10° SW 20:31:33 17° W 20:35:14 10° NW visible
7 Mar ? 18:59:09 10° S 19:05:05 65° E 19:11:00 10° NNE visible
8 Mar ? 19:17:12 10° S 19:23:09 68° W 19:29:05 10° N visible
9 Mar ? 19:35:49 10° SSW 19:41:13 36° W 19:46:38 10° NNW visible
10 Mar ? 19:55:14 10° SW 19:59:17 19° W 20:03:22 10° NW visible
11 Mar ? 05:29:50 10° ENE 05:31:28 11° E 05:33:07 10° ESE visible
11 Mar ? 18:26:56 10° S 18:32:49 58° E 18:38:41 10° NNE visible
12 Mar ? 05:44:52 10° NE 05:49:33 22° E 05:54:13 10° SE visible
12 Mar ? 18:44:54 10° S 18:50:53 76° W 18:56:52 10° N visible
13 Mar ? 19:03:24 10° SSW 19:08:56 40° W 19:14:30 10° NNW visible
14 Mar ? 19:22:37 10° SW 19:27:01 21° W 19:31:25 10° NW visible
15 Mar ? 19:44:13 10° W 19:45:05 10° W 19:45:58 10° WNW visible
